This is the latest recevied weather packets stored in our database for station/object N0KWA. If no packets are shown the sender has not sent any weather packets the latest 10 day(s).
| Time | Temp. | Humidity | Pressure | Rain* | Wind** | Luminosity | Snow |
|---|---|---|---|---|---|---|---|
| 1788187837 | 28.89° C | 91% | 1019.7 hPa | 0 mm | - | 25 W/m² | - |
| 1788187532 | 28.89° C | 92% | 1019.6 hPa | 0 mm | - | 21 W/m² | - |
| 1788187228 | 28.33° C | 93% | 1019.5 hPa | 0 mm | - | 21 W/m² | - |
| 1788186922 | 28.33° C | 94% | 1019.5 hPa | 0 mm | - | 18 W/m² | - |
| 1788186617 | 27.78° C | 95% | 1019.4 hPa | 0 mm | - | 16 W/m² | - |
| 1788186314 | 27.78° C | 95% | 1019.5 hPa | 0 mm | - | 14 W/m² | - |
| 1788186008 | 27.78° C | 97% | 1019.5 hPa | 0 mm | - | 14 W/m² | - |
| 1788185702 | 27.22° C | 97% | 1019.5 hPa | 0 mm | - | 13 W/m² | - |
| 1788185397 | 27.22° C | 98% | 1019.4 hPa | 0 mm | - | 12 W/m² | - |
| 1788185097 | 27.22° C | 98% | 1019.4 hPa | 0 mm | - | 11 W/m² | - |
| 1788184800 | 27.22° C | 98% | 1019.4 hPa | 0 mm | - | 10 W/m² | - |
| 1788184495 | 26.67° C | 99% | 1019.4 hPa | 0 mm | - | 9 W/m² | - |
| 1788184190 | 26.67° C | 99% | 1019.3 hPa | 0 mm | - | 11 W/m² | - |
| 1788183887 | 26.67° C | 99% | 1019.4 hPa | 0 mm | - | 10 W/m² | - |
| 1788183586 | 26.11° C | 99% | 1019.1 hPa | 0 mm | - | 10 W/m² | - |
| 1788183280 | 26.11° C | 99% | 1019.1 hPa | 0 mm | - | 11 W/m² | - |
| 1788182976 | 25.56° C | 99% | 1019.2 hPa | 0 mm | - | 12 W/m² | - |
| 1788182671 | 25.56° C | 99% | 1019.1 hPa | 0 mm | - | 10 W/m² | - |
| 1788182371 | 25.56° C | 99% | 1019.1 hPa | 0 mm | - | 8 W/m² | - |
| 1788182066 | 25° C | 99% | 1018.9 hPa | 0 mm | - | 8 W/m² | - |
| 1788181761 | 25° C | 99% | 1019 hPa | 0 mm | - | 7 W/m² | - |
| 1788181451 | 25° C | 99% | 1019 hPa | 0 mm | - | 6 W/m² | - |
| 1788181150 | 25° C | 99% | 1019 hPa | 0 mm | - | 6 W/m² | - |
| 1788180846 | 24.44° C | 99% | 1018.8 hPa | 0 mm | - | 6 W/m² | - |
| 1788180541 | 24.44° C | 99% | 1018.7 hPa | 0 mm | - | 6 W/m² | - |
* Rain latest hour (hover to see other rain measurements)
** Current wind speed in m/s (hover to see current wind gust speed)